Weather in Progress

Russia / Amur Oblast     49°44′34″N   129°40′33″E
temp.,
°C
wind,
m/s
gust,
m/s
humid.,
%
clouds,
%
prec.,
mm/h
press.,
hPa
HPBL,
m
11 may, tue
tue1100:00+7sw2292100 0.0 101450
03:00+6wsw1193100 0.0 101429
06:00+7sse1192100 0.1 101534
09:00+8sse3382100 0.1 1016371
12:00+12sse346312 0.0 1016940
15:00+14sse555293 0.0 10141587
18:00+14se665898 0.0 10131189
21:00+10se6137160 0.0 1014447
12 may, wed
wed1200:00+8se71479100 0.0 1013501
03:00+7se81680100 0.0 1012633
06:00+8se91877100 0.0 1009775
09:00+9se101877100 0.8 1006860
12:00+10se11177799 1.9 10041294
15:00+15sse111466100 2.4 10011816
18:00+12se101478100 0.9 10011381
21:00+10se91686100 4.1 1000559
13 may, thu
thu1300:00+10se81488100 0.8 999496
03:00+9s61090100 3.8 1000523
06:00+9ssw4989100 0.9 1001495
09:00+10wsw688298 1.9 1002667
12:00+13w6872100 0.8 10041103
15:00+15wnw795928 1.1 10041592
18:00+14nw59665 0.7 10051064
21:00+9nne12855 0.7 100710
14 may, fri
fri1400:00+8e118837 0.0 100810
03:00+8se3389100 0.0 100748
06:00+8se388755 0.0 1007218
09:00+15sse6860100 0.0 1005444
12:00+19sse4747100 0.0 1004964
15:00+19ssw71254100 0.4 10002097
18:00+9nw2691100 5.2 1002401
21:00+8sw249585 10.4 1002141
15 may, sat
sat1500:00+7sse389821 0.0 1001188
03:00+6ssw36930 0.0 1001140
06:00+6ssw311871 0.0 1001359
09:00+11wsw7962100 0.0 10001507
12:00+10w71069100 0.5 10001279
15:00+11wnw91163100 1.0 10001628
18:00+9wnw7107496 0.3 10021124
21:00+8nw71184100 0.5 1004899